Location: Berg
(47.2344°N, 9.5296°E)
Time: 22:36:57
(UTC+00:00)

CZ-4C R/B - Pass Details

Date: 24 January 2021
Orbit: 617 x 1385 km, 63.4° (Epoch: 04 March)

Event Time Altitude Azimuth Distance (km) Brightness Sun altitude
Rises 19:24:53 0° 310° (NW) 3,513 6.2 -32.5°
Reaches altitude 10° 19:27:54 10° 326° (NW) 2,705 5.2 -33.0°
Enters shadow 19:31:43 21° 2° (N) 2,166 4.3 -33.7°
